IRIDIUM 33 DEB, 37548

Orbit data source: Space-Track

IRIDIUM 33 DEB, 37548 is space debris in LEO originally from a launch on Sun, 14 Sep 1997 UTC launched from the Tyuratam Missile And Space Complex (TTMTR). The debris from Iridium 33, an American commercial communications satellite, has been tracked extensively since its accidental collision with the defunct Russian satellite Cosmos 2251 in 2009. This event, occurring at high speed in low Earth orbit (LEO), generated thousands of pieces of space debris, significantly increasing the risk of further collisions. The Iridium 33 debris cloud has impacted space traffic management and orbital debris mitigation strategies, making it a subject of ongoing study in space situational awareness.

Loading next visibility...
Identifier
37548, 1997-051XH
Orbit
LEO
Country
Flag of USUS
Related business
Manufacturer
Unknown
Mission
Spacecraft
Bus & Motor
Unknown
Mass
Unknown
Launch date (UTC)
1997-09-14 (28 years ago)
Launch vehicle
Unknown
Launch site
Tyuratam Missile And Space Complex (TTMTR)
Object type
Payload
Rocket body
Debris
Shape & HBR
Unknown shape, 0.1 m
Radar Cross Section
Small (<0.1 m²)

Expand to show TLE details & history
Last TLE update: 4 days ago

TLE from 4 days ago
0 IRIDIUM 33 DEB
1 37548U 97051XH  26034.21940447  .00005192  00000-0  12804-2 0  9999
2 37548  86.3516  20.5130 0026097  22.8260 337.4100 14.51800482662930
Epoch: 2026-02-03T05:15Z
TLE epoch observation values (Epoch: 2026-02-03T05:15:56.546Z)
Latitude
0.00008°
Longitude
168.12392°
Altitude
705.75 km
Speed
7.512 km/s
True Right ascension
01h 22m 03s
True Declination
0° 00' 00"
Sunlit
Object was in daylight at epoch
Visualization orbit readout
Latitude
Unknown
Longitude
Unknown
Altitude
Unknown
Speed
Unknown
Apparent Right ascension
Unknown
Apparent Declination
Unknown
Sunlit
N/A
Visualization observer readout
Local Sidereal Time
14:40:08
Azimuth
Unknown
Elevation
Unknown
Doppler factor
Unknown
Orbital elements
Apogee altitude
735.23 km
Perigee altitude
698.199 km
Semi-major axis
7,094.852 km
Eccentricity
0.00261
Inclination
86.3516°
RAAN
20.513°
Arg. of periapsis
22.826°
True anomaly
337.29478°
Mean anomaly
337.41°
Eccentric anomaly
337.35242°
Mean motion
3.63185 °/min
Orbital period
99.12 mins
BSTAR
0.0012804
Loading maneuver chart data...
Computing Atmospheric mass density...
Loading historical data...
Loading historical data...
Loading historical data...
Loading historical data...
Loading historical data...
Loading historical data...
Loading historical data...

Documentation

Showing up to 5 results
|